Weather History for Vero Beach, FL

Change the Weather History Date:

Friday, May 4, 2012

  Actual Average Record
Temperature  
Mean Temperature 76 °F 74 °F  
Max Temperature 84 °F 83 °F 93 °F (1984)
Min Temperature 67 °F 65 °F 51 °F (1999)
Degree Days  
Heating Degree Days 0 0  
Month to date heating degree days 0 0  
Since 1 July heating degree days 230 455  
Cooling Degree Days 11 9  
Month to date cooling degree days 52 35  
Year to date cooling degree days 681 493  
Growing Degree Days 25 (Base 50)    
Moisture  
Dew Point 66 °F    
Average Humidity 71    
Maximum Humidity 87    
Minimum Humidity 55    
Precipitation  
Precipitation 0.00 in 0.08 in 2.46 in (2005)
Month to date precipitation 0.00 0.31  
Year to date precipitation 8.95 12.32  
Sea Level Pressure  
Sea Level Pressure 30.08 in    
Wind  
Wind Speed 8 mph (ESE)    
Max Wind Speed 14 mph    
Max Gust Speed 17 mph    
Visibility 10 miles    
Events      
T = Trace of Precipitation, MM = Missing Value Source: NWS Daily Summary

Daily Weather History Graph

Daily Weather History Graph

Search for Another Location

Airport:

Trip Planner

Search our weather history database for the weather conditions in past years. The results will help you decide how hot, cold, wet, or windy it might be!

Date:

Astronomy

May. 04, 2012 Rise Set
Actual Time 6:39 AM EDT 7:57 PM EDT
Civil Twilight 6:14 AM EDT 8:22 PM EDT
Nautical Twilight 5:45 AM EDT 8:52 PM EDT
Astronomical Twilight 5:14 AM EDT 9:22 PM EDT
Moon 6:37 PM EDT (5/4) 5:12 AM EDT (5/4)
Length of Visible Light 14h 07m
Length of Day
13h 18m
Waxing Gibbous, 97% of the Moon is Illuminated
May 4
Waxing Gibbous
May 5
Full
May 12
Last Quarter
May 20
New
May 28
First Quarter

Hourly Weather History & Observations

Time (EDT) Temp. Heat Index Dew Point Humidity Pressure Visibility Wind Dir Wind Speed Gust Speed Precip Events Conditions
12:53 AM 75.0 °F - 66.9 °F 76% 30.10 in 10.0 mi ESE 8.1 mph - N/A   Clear
1:53 AM 73.9 °F - 66.9 °F 79% 30.08 in 10.0 mi ESE 10.4 mph - N/A   Clear
2:53 AM 73.9 °F - 66.9 °F 79% 30.06 in 10.0 mi SE 8.1 mph - N/A   Partly Cloudy
3:53 AM 73.0 °F - 66.9 °F 81% 30.05 in 10.0 mi SE 8.1 mph - N/A   Clear
4:53 AM 72.0 °F - 66.0 °F 81% 30.04 in 10.0 mi ESE 5.8 mph - N/A   Clear
5:53 AM 71.1 °F - 66.0 °F 84% 30.05 in 10.0 mi SSE 4.6 mph - N/A   Clear
6:53 AM 68.0 °F - 64.9 °F 90% 30.07 in 10.0 mi Calm Calm - N/A   Clear
7:53 AM 75.9 °F - 66.9 °F 74% 30.09 in 10.0 mi ESE 9.2 mph - N/A   Partly Cloudy
8:14 AM 77.0 °F - 66.2 °F 69% 30.09 in 10.0 mi ESE 11.5 mph - N/A   Mostly Cloudy
8:49 AM 78.8 °F - 66.2 °F 65% 30.10 in 10.0 mi SE 6.9 mph - N/A   Scattered Clouds
8:53 AM 78.1 °F - 66.9 °F 68% 30.10 in 10.0 mi SE 9.2 mph - N/A   Partly Cloudy
9:32 AM 78.8 °F - 66.2 °F 65% 30.11 in 10.0 mi ESE 8.1 mph - N/A   Mostly Cloudy
9:53 AM 80.1 °F 82.1 °F 66.0 °F 62% 30.11 in 10.0 mi ESE 9.2 mph - N/A   Mostly Cloudy
10:53 AM 79.0 °F - 64.9 °F 62% 30.12 in 10.0 mi SE 5.8 mph - N/A   Mostly Cloudy
11:00 AM 80.6 °F 82.3 °F 64.4 °F 58% 30.13 in 10.0 mi SE 6.9 mph - N/A   Mostly Cloudy
11:53 AM 81.0 °F 83.0 °F 66.0 °F 60% 30.12 in 10.0 mi ESE 9.2 mph - N/A   Scattered Clouds
12:53 PM 82.9 °F 84.6 °F 64.9 °F 54% 30.11 in 10.0 mi East 11.5 mph - N/A   Partly Cloudy
1:53 PM 82.9 °F 84.4 °F 64.0 °F 53% 30.10 in 10.0 mi ESE 8.1 mph 17.3 mph N/A   Clear
2:53 PM 80.1 °F 81.7 °F 64.0 °F 58% 30.09 in 10.0 mi East 9.2 mph - N/A   Clear
3:53 PM 80.1 °F 81.9 °F 64.9 °F 60% 30.08 in 10.0 mi East 9.2 mph - N/A   Clear
4:53 PM 79.0 °F - 64.9 °F 62% 30.06 in 10.0 mi East 9.2 mph - N/A   Clear
5:53 PM 79.0 °F - 64.9 °F 62% 30.04 in 10.0 mi ESE 11.5 mph - N/A   Clear
6:53 PM 77.0 °F - 64.9 °F 66% 30.03 in 10.0 mi East 9.2 mph - N/A   Clear
7:53 PM 75.9 °F - 66.0 °F 71% 30.04 in 10.0 mi ESE 8.1 mph - N/A   Clear
8:53 PM 75.9 °F - 66.0 °F 71% 30.04 in 10.0 mi ESE 8.1 mph - N/A   Clear
9:53 PM 75.0 °F - 66.0 °F 73% 30.06 in 10.0 mi ESE 4.6 mph - N/A   Clear
10:53 PM 75.0 °F - 66.0 °F 73% 30.05 in 10.0 mi ESE 9.2 mph - N/A   Clear
11:53 PM 75.0 °F - 66.9 °F 76% 30.05 in 10.0 mi SE 8.1 mph - N/A   Clear